Погода в Сьюдад Охеда

Венесуэла     10°11′51″N   71°18′37″W
темп.,
°C
ветер,
м/с
пор.,
м/с
влажн.,
%
обл.,
%
осадки,
мм/ч
давл.,
гПа
погр.,
м
9 августа, вт
вт923:00+25вюв00833 0.0 100928
02:00+25вюв228612 0.0 100864
05:00+24вюв22870 0.0 100966
08:00+26вюв23745 0.2 1011184
11:00+32ю3354100 0.0 10111129
14:00+33юз6358100 0.0 1008774
17:00+33сз365261 0.2 10071570
20:00+26сз3686100 2.4 1009153
10 августа, ср
ср1023:00+25в229164 0.0 101050
02:00+25юв1192100 0.0 100946
05:00+24в229166 0.2 100950
08:00+26вюв248394 0.3 1011168
11:00+31ююв4459100 0.6 10111121
14:00+34ююз4448100 0.6 10091449
17:00+28зсз1283100 11.1 1007210
20:00+23в3596100 69.9 1011157
11 августа, чт
чт1123:00+23зсз2392100 0.0 101182
02:00+24всв108968 0.0 101051
05:00+23вюв11935 0.0 101045
08:00+25ююв23884 0.2 1011137
11:00+30ююз226922 0.0 1011927
14:00+32зюз32618 0.0 10091060
17:00+31з336334 0.0 1007393
20:00+27ссв5117624 1.1 1009419
12 августа, пт
пт1223:00+24с379097 2.1 1010149
02:00+24с129330 2.1 101061
05:00+23юв2295100 0.0 101056
08:00+25юв259224 1.9 1011195
11:00+30ю337119 0.3 1012849
14:00+32зюз32583 0.3 10101069
17:00+32зюз22565 0.0 1007476
20:00+26ссв41186100 1.1 1009323
13 августа, сб
сб1323:00+24с399374 2.8 1010200
02:00+24с2396100 2.9 100977
05:00+24в2295100 0.5 101046
08:00+26ююв3689100 0.6 1011279
11:00+30ююз3472100 1.0 10121009
14:00+30юз3370100 2.1 1011783
17:00+30ююз336888 0.0 1009633
20:00+24вюв6996100 9.1 1011322